Location: ??????
(55.2000°N, 38.3000°E)
Time: 07:25:57
(UTC+00:00)

Cosmos 2322 Rocket - Pass Details

Date: 15 November 2025
Orbit: 830 x 851 km, 71.0° (Epoch: 14 December)

Event Time Altitude Azimuth Distance (km) Brightness Sun altitude
Exits shadow 02:16:10 22° 335° (NNW) 1,779 3.6 -22.9°
Maximum altitude 02:16:15 22° 336° (NNW) 1,779 3.6 -22.9°
Drops below altitude 10° 02:20:38 10° 26° (NNE) 2,490 4.9 -22.3°
Sets 02:23:41 0° 42° (NE) 3,430 6.0 -21.9°
